Simultaneous Nadir Overpasses (SNOs) Predictions

Prediction of SNOs between NOAA-19 and NPP Satellite Orbit:

Table of predicted SNOs for the next 14.0 days since TLE Epoch: 12/31/2016
Index Date (NOAA-19) Time (NOAA-19) Lat,Lon (NOAA-19) SZA (NOAA-19 ) Date (NPP) Time (NPP) Lat,Lon (NPP) SZA (NPP ) Distance(km) Time Diff (sec)
1 01/08/2017 04:42:02 -80.92,-122.12 73.42 01/08/2017 04:43:01 -80.92,-122.11 73.45 0.27 59
2 01/08/2017 05:32:57 80.92, 45.22 106.57 01/08/2017 05:33:46 80.92, 45.23 106.54 0.40 49
3 01/08/2017 06:24:04 -80.92,-147.71 73.42 01/08/2017 06:24:31 -80.92,-147.53 73.46 3.15 27
4 01/08/2017 07:14:59 80.92, 19.63 106.57 01/08/2017 07:15:16 80.92, 19.81 106.54 3.07 17
5 01/08/2017 08:06:05 -80.92,-172.92 73.46 01/08/2017 08:06:01 -80.92,-172.95 73.46 0.48 4
6 01/08/2017</
